User: anonymous   Login
Location: Albany
(35.0000°S, 118.0000°E)
Time: 09:45:40
(UTC-04:00)
Language:

ERS-1 Rocket - Orbit

View from above orbital plane
View from above orbital plane
View from above satellite
View from above satellite

Ground track
Ground track

The orbit data is extracted from the following two-line orbital elements,

1 21610U 91050F   16149.16022317  .00000089  00000-0  41954-4 0  9992
2 21610  98.6575 196.1572 0003573  33.9705  31.9744 14.40735005304675
Epoch (UTC): 28 May 2016 03:50:43
Eccentricity: 0.0003573
inclination: 98.6575°
perigee height: 753 km
apogee height: 758 km
right ascension of ascending node: 196.1572°
argument of perigee: 33.9705°
revolutions per day: 14.40735005
mean anomaly at epoch: 31.9744°
orbit number at epoch: 30467

The dashed part of the orbit path shows where the satellite is in the earth's shadow,  

DLR